User: anonymous   Login
Location: Newark
(46.7000°N, 60.6000°W)
Time: 21:03:16
(UTC+00:00)
Language:

Envisat - Orbit

View from above orbital plane
View from above orbital plane
View from above satellite
View from above satellite

Ground track
Ground track

The orbit data is extracted from the following two-line orbital elements,

1 27386U 02009A   20294.47329817  .00000011  00000-0  17006-4 0  9995
2 27386  98.1399 294.9645 0001211  91.6494  24.2122 14.37995805976583
Epoch (UTC): 20 October 2020 11:21:32
Eccentricity: 0.0001211
inclination: 98.1399°
perigee height: 764 km
apogee height: 766 km
right ascension of ascending node: 294.9645°
argument of perigee: 91.6494°
revolutions per day: 14.37995805
mean anomaly at epoch: 24.2122°
orbit number at epoch: 97658

The dashed part of the orbit path shows where the satellite is in the earth's shadow,  

DLR